,,,PA_Meas_PMT16A,,PR_Meas_QMR101_102,,RH_Meas_QMH101,,SR_Meas_QMS101,,TA_Meas_QMH101,,GenWind,,GenWind,
date,time,status,PA,status,PR,status,RH,status,SR,status,TA,status,DirAvg,status,SpdAvg,
2011-09-30, 00:00:04,VALID,1005.63,VALID,0,VALID,102.326,VALID,0,VALID,23.9742,VALID,331,VALID,0.492969,
2011-09-30, 00:01:04,VALID,1005.59,VALID,0,VALID,102.578,VALID,0,VALID,24.0539,VALID,327,VALID,0.589844,
2011-09-30, 00:02:04,VALID,1005.56,VALID,0,VALID,102.463,VALID,0,VALID,24.0716,VALID,294,VALID,0.720703,
2011-09-30, 00:03:04,VALID,1005.54,VALID,0,VALID,102.502,VALID,0,VALID,24.1123,VALID,290,VALID,0.348047,
2011-09-30, 00:04:04,VALID,1005.54,VALID,0,VALID,102.166,VALID,0,VALID,24.1123,VALID,286,VALID,1.35547,
2011-09-30, 00:05:04,VALID,1005.5,VALID,0,VALID,102.128,VALID,0,VALID,24.13,VALID,315,VALID,1.5375,
2011-09-30, 00:06:04,VALID,1005.49,VALID,0,VALID,102.074,VALID,0,VALID,24.2097,VALID,273,VALID,1.31445,
2011-09-30, 00:07:04,VALID,1005.48,VALID,0,VALID,102.044,VALID,0,VALID,24.2486,VALID,287,VALID,1.4707,
2011-09-30, 00:08:04,VALID,1005.46,VALID,0,VALID,102.212,VALID,0,VALID,24.2644,VALID,285,VALID,1.71602,
2011-09-30, 00:09:04,VALID,1005.47,VALID,0,VALID,101.983,VALID,0,VALID,24.2857,VALID,303,VALID,1.28086,
2011-09-30, 00:10:04,VALID,1005.46,VALID,0,VALID,102.059,VALID,0,VALID,24.3441,VALID,303,VALID,0.813672,
2011-09-30, 00:11:04,VALID,1005.48,VALID,0,VALID,102.235,VALID,0,VALID,24.4025,VALID,288,VALID,1.04375,
2011-09-30, 00:12:04,VALID,1005.45,VALID,0,VALID,102.288,VALID,0,VALID,24.4201,VALID,301,VALID,0.562109,
2011-09-30, 00:13:04,VALID,1005.42,VALID,0,VALID,102.296,VALID,0,VALID,24.4414,VALID,325,VALID,0.820703,
2011-09-30, 00:14:04,VALID,1005.4,VALID,0,VALID,102.303,VALID,0,VALID,24.4804,VALID,266,VALID,0.814062,
2011-09-30, 00:15:04,VALID,1005.38,VALID,0,VALID,95.9789,VALID,0,VALID,24.4998,VALID,265,VALID,1.64883,
2011-09-30, 00:16:04,VALID,1005.35,VALID,0,VALID,95.5746,VALID,0,VALID,24.5388,VALID,299,VALID,1.14844,
2011-09-30, 00:17:04,VALID,1005.36,VALID,0,VALID,95.2313,VALID,0,VALID,24.5564,VALID,299,VALID,0.925,
2011-09-30, 00:18:04,VALID,1005.35,VALID,0,VALID,95.0024,VALID,0,VALID,24.5972,VALID,291,VALID,1.43438,
2011-09-30, 00:19:04,VALID,1005.32,VALID,0,VALID,94.9567,VALID,0,VALID,24.6361,VALID,299,VALID,1.00898,
2011-09-30, 00:20:04,VALID,1005.36,VALID,0,VALID,95.0787,VALID,0,VALID,24.6556,VALID,292,VALID,0.796875,
2011-09-30, 00:21:04,VALID,1005.32,VALID,0,VALID,95.2313,VALID,0,VALID,24.675,VALID,244,VALID,0.846484,
2011-09-30, 00:22:04,VALID,1005.32,VALID,0,VALID,94.7202,VALID,0,VALID,24.6556,VALID,287,VALID,1.55,
2011-09-30, 00:23:04,VALID,1005.34,VALID,0,VALID,94.4989,VALID,0,VALID,24.6964,VALID,287,VALID,1.46328,
2011-09-30, 00:24:04,VALID,1005.32,VALID,0,VALID,93.7055,VALID,0,VALID,24.7335,VALID,282,VALID,1.8707,
2011-09-30, 00:25:04,VALID,1005.28,VALID,0,VALID,93.5606,VALID,0,VALID,24.7724,VALID,294,VALID,1.79531,
2011-09-30, 00:26:04,VALID,1005.26,VALID,0,VALID,93.3851,VALID,0,VALID,24.7919,VALID,286,VALID,2.04844,
2011-09-30, 00:27:04,VALID,1005.26,VALID,0,VALID,93.408,VALID,0,VALID,24.7919,VALID,306,VALID,1.16602,
2011-09-30, 00:28:04,VALID,1005.26,VALID,0,VALID,93.7284,VALID,0,VALID,24.8503,VALID,293,VALID,1.44453,
2011-09-30, 00:29:04,VALID,1005.22,VALID,0,VALID,94.209,VALID,0,VALID,24.8697,VALID,280,VALID,1.15859,
2011-09-30, 00:30:04,VALID,1005.24,VALID,0,VALID,94.0259,VALID,0,VALID,24.9087,VALID,304,VALID,0.945703,
2011-09-30, 00:31:04,VALID,1005.17,VALID,0,VALID,94.1785,VALID,0,VALID,24.9087,VALID,333,VALID,0.95625,
2011-09-30, 00:32:04,VALID,1005.21,VALID,0,VALID,94.354,VALID,0,VALID,24.9087,VALID,271,VALID,0.296484,
2011-09-30, 00:33:04,VALID,1005.19,VALID,0,VALID,93.1639,VALID,0,VALID,24.9866,VALID,282,VALID,2.44805,
2011-09-30, 00:34:04,VALID,1005.15,VALID,0,VALID,93.0876,VALID,0,VALID,25.1248,VALID,268,VALID,2.08242,
2011-09-30, 00:35:04,VALID,1005.15,VALID,0,VALID,92.6299,VALID,0,VALID,25.1813,VALID,269,VALID,2.8875,
2011-09-30, 00:36:04,VALID,1005.13,VALID,0,VALID,91.7678,VALID,0,VALID,25.2806,VALID,260,VALID,1.9543,
2011-09-30, 00:37:04,VALID,1005.12,VALID,0,VALID,91.2719,VALID,0,VALID,25.2592,VALID,265,VALID,2.45391,
2011-09-30, 00:38:04,VALID,1005.14,VALID,0,VALID,91.0812,VALID,0,VALID,25.2572,VALID,263,VALID,1.87578,
2011-09-30, 00:39:04,VALID,1005.07,VALID,0,VALID,90.3641,VALID,0,VALID,25.2592,VALID,297,VALID,2.2293,
2011-09-30, 00:40:04,VALID,1005.1,VALID,0,VALID,91.4016,VALID,0,VALID,25.2786,VALID,211,VALID,1.38633,
2011-09-30, 00:41:04,VALID,1005.06,VALID,0,VALID,89.6317,VALID,0,VALID,25.3,VALID,273,VALID,1.98516,
2011-09-30, 00:42:04,VALID,1005.06,VALID,0,VALID,89.4563,VALID,0,VALID,25.2592,VALID,277,VALID,1.11094,
2011-09-30, 00:43:04,VALID,1005.01,VALID,0,VALID,89.7233,VALID,0,VALID,25.2786,VALID,251,VALID,2.03633,
2011-09-30, 00:44:04,VALID,1005.02,VALID,0,VALID,90.3641,VALID,0,VALID,25.2806,VALID,270,VALID,1.41094,
2011-09-30, 00:45:04,VALID,1004.99,VALID,0,VALID,90.3793,VALID,0,VALID,25.2416,VALID,289,VALID,1.59922,
2011-09-30, 00:46:04,VALID,1004.94,VALID,0,VALID,90.2802,VALID,0,VALID,25.1813,VALID,238,VALID,0.994531,
2011-09-30, 00:47:04,VALID,1004.95,VALID,0,VALID,90.3717,VALID,0,VALID,25.2007,VALID,262,VALID,1.26953,
2011-09-30, 00:48:05,VALID,1004.95,VALID,0,VALID,89.9369,VALID,0,VALID,25.2007,VALID,259,VALID,1.18594,
2011-09-30, 00:49:05,VALID,1004.92,VALID,0,VALID,89.6241,VALID,0,VALID,25.2007,VALID,297,VALID,1.77383,
2011-09-30, 00:50:05,VALID,1004.92,VALID,0,VALID,89.5936,VALID,0,VALID,25.2221,VALID,336,VALID,1.14531,
2011-09-30, 00:51:05,VALID,1004.9,VALID,0,VALID,89.3266,VALID,0,VALID,25.2202,VALID,263,VALID,2.07461,
2011-09-30, 00:52:05,VALID,1004.89,VALID,0,VALID,89.0367,VALID,0,VALID,25.2378,VALID,224,VALID,1.47891,
2011-09-30, 00:53:05,VALID,1004.86,VALID,0,VALID,88.9756,VALID,0,VALID,25.3,VALID,243,VALID,1.17266,
2011-09-30, 00:54:05,VALID,1004.88,VALID,0,VALID,89.0443,VALID,0,VALID,25.2592,VALID,269,VALID,1.18555,
2011-09-30, 00:55:05,VALID,1004.84,VALID,0,VALID,89.296,VALID,0,VALID,25.2592,VALID,305,VALID,0.753125,
2011-09-30, 00:56:05,VALID,1004.84,VALID,0,VALID,89.3571,VALID,0,VALID,25.2202,VALID,226,VALID,1.19961,
2011-09-30, 00:57:05,VALID,1004.84,VALID,0,VALID,89.6851,VALID,0,VALID,25.1813,VALID,300,VALID,1.37617,
2011-09-30, 00:58:05,VALID,1004.84,VALID,0,VALID,89.0672,VALID,0,VALID,25.1813,VALID,251,VALID,1.22305,
2011-09-30, 00:59:05,VALID,1004.83,VALID,0,VALID,87.8542,VALID,0,VALID,25.2397,VALID,279,VALID,1.75156,
2011-09-30, 01:00:05,VALID,1004.81,VALID,0,VALID,86.6107,VALID,0,VALID,25.2786,VALID,293,VALID,2.81797,
2011-09-30, 01:01:05,VALID,1004.85,VALID,0,VALID,87.8313,VALID,0,VALID,25.337,VALID,281,VALID,1.27109,
2011-09-30, 01:02:05,VALID,1004.83,VALID,0,VALID,87.7321,VALID,0,VALID,25.376,VALID,279,VALID,0.882422,
2011-09-30, 01:03:05,VALID,1004.81,VALID,0,VALID,86.2521,VALID,0,VALID,25.3351,VALID,158,VALID,1.13164,
2011-09-30, 01:04:05,VALID,1004.82,VALID,0,VALID,87.6406,VALID,0,VALID,25.376,VALID,180,VALID,0.927734,
2011-09-30, 01:05:05,VALID,1004.83,VALID,0,VALID,87.0532,VALID,0,VALID,25.3741,VALID,245,VALID,1.20625,
2011-09-30, 01:06:05,VALID,1004.79,VALID,0,VALID,86.7175,VALID,0,VALID,25.4149,VALID,281,VALID,1.37109,
2011-09-30, 01:07:05,VALID,1004.82,VALID,0,VALID,86.7633,VALID,0.0815089,VALID,25.3935,VALID,348,VALID,0.945313,
2011-09-30, 01:08:05,VALID,1004.78,VALID,0,VALID,86.4734,VALID,0,VALID,25.4344,VALID,271,VALID,1.20508,
2011-09-30, 01:09:05,VALID,1004.76,VALID,0,VALID,86.2064,VALID,0,VALID,25.4149,VALID,276,VALID,1.34883,
2011-09-30, 01:10:05,VALID,1004.76,VALID,0,VALID,86.6641,VALID,0,VALID,25.4344,VALID,225,VALID,0.714844,
2011-09-30, 01:11:05,VALID,1004.71,VALID,0,VALID,86.9235,VALID,0,VALID,25.4558,VALID,294,VALID,0.28125,
2011-09-30, 01:12:05,VALID,1004.71,VALID,0,VALID,86.7099,VALID,0,VALID,25.4539,VALID,264,VALID,0.980859,
2011-09-30, 01:13:05,VALID,1004.65,VALID,0,VALID,86.5573,VALID,0,VALID,25.4928,VALID,331,VALID,1.3332,
2011-09-30, 01:14:05,VALID,1004.66,VALID,0,VALID,86.9845,VALID,0,VALID,25.4734,VALID,250,VALID,0.220313,
2011-09-30, 01:15:05,VALID,1004.66,VALID,0,VALID,86.3971,VALID,0,VALID,25.5142,VALID,251,VALID,1.23828,
2011-09-30, 01:16:05,VALID,1004.62,VALID,0,VALID,86.3055,VALID,0,VALID,25.5727,VALID,326,VALID,0.417969,
2011-09-30, 01:17:05,VALID,1004.63,VALID,0,VALID,85.6342,VALID,0,VALID,25.6097,VALID,293,VALID,1.02891,
2011-09-30, 01:18:05,VALID,1004.63,VALID,0,VALID,86.2216,VALID,0,VALID,25.6311,VALID,282,VALID,0.9,
2011-09-30, 01:19:05,VALID,1004.62,VALID,0,VALID,85.1002,VALID,0.0815089,VALID,25.6292,VALID,241,VALID,1.2293,
2011-09-30, 01:20:05,VALID,1004.62,VALID,0,VALID,83.6583,VALID,0,VALID,25.6876,VALID,287,VALID,2.26328,
2011-09-30, 01:21:05,VALID,1004.67,VALID,0,VALID,84.0703,VALID,0,VALID,25.8239,VALID,237,VALID,2.19297,
2011-09-30, 01:22:05,VALID,1004.65,VALID,0,VALID,83.4981,VALID,0,VALID,25.8823,VALID,275,VALID,2.05312,
2011-09-30, 01:23:05,VALID,1004.67,VALID,0,VALID,83.315,VALID,0,VALID,25.9408,VALID,265,VALID,1.19023,
2011-09-30, 01:24:05,VALID,1004.71,VALID,0,VALID,83.4065,VALID,0,VALID,25.9992,VALID,234,VALID,2.42383,
2011-09-30, 01:25:05,VALID,1004.66,VALID,0,VALID,83.6736,VALID,0,VALID,26.0381,VALID,247,VALID,1.99414,
2011-09-30, 01:26:05,VALID,1004.66,VALID,0,VALID,82.8573,VALID,0,VALID,26.0576,VALID,228,VALID,2.15547,
2011-09-30, 01:27:05,VALID,1004.63,VALID,0,VALID,83.5439,VALID,0.0815089,VALID,26.0771,VALID,267,VALID,1.11719,
2011-09-30, 01:28:05,VALID,1004.6,VALID,0,VALID,84.467,VALID,0,VALID,26.0576,VALID,254,VALID,0.705469,
2011-09-30, 01:29:05,VALID,1004.61,VALID,0,VALID,84.5814,VALID,0,VALID,25.9992,VALID,263,VALID,0.897656,
2011-09-30, 01:30:05,VALID,1004.57,VALID,0,VALID,84.94,VALID,0,VALID,25.9797,VALID,307,VALID,0.676562,
2011-09-30, 01:31:05,VALID,1004.53,VALID,0,VALID,84.8789,VALID,0,VALID,25.9602,VALID,267,VALID,0.999219,
2011-09-30, 01:32:05,VALID,1004.51,VALID,0,VALID,84.6958,VALID,0,VALID,25.9213,VALID,314,VALID,0.899609,
2011-09-30, 01:33:05,VALID,1004.52,VALID,0,VALID,84.0855,VALID,0,VALID,25.9622,VALID,251,VALID,1.3293,
2011-09-30, 01:34:05,VALID,1004.49,VALID,0,VALID,84.2534,VALID,0,VALID,25.9038,VALID,277,VALID,1.36484,
2011-09-30, 01:35:05,VALID,1004.47,VALID,0,VALID,83.8795,VALID,0,VALID,25.9038,VALID,257,VALID,1.39688,
2011-09-30, 01:36:05,VALID,1004.44,VALID,0,VALID,83.9024,VALID,0,VALID,25.8629,VALID,252,VALID,0.880078,
2011-09-30, 01:37:05,VALID,1004.41,VALID,0,VALID,83.2921,VALID,0,VALID,25.8434,VALID,281,VALID,1.40234,
2011-09-30, 01:38:05,VALID,1004.43,VALID,0,VALID,83.5515,VALID,0,VALID,25.8434,VALID,284,VALID,1.12109,
2011-09-30, 01:39:05,VALID,1004.38,VALID,0,VALID,83.3303,VALID,0,VALID,25.8434,VALID,302,VALID,0.564062,
2011-09-30, 01:40:05,VALID,1004.34,VALID,0,VALID,83.8033,VALID,0,VALID,25.8648,VALID,262,VALID,0.691406,
2011-09-30, 01:41:05,VALID,1004.31,VALID,0,VALID,83.4065,VALID,0,VALID,25.8823,VALID,287,VALID,0.417578,
2011-09-30, 01:42:05,VALID,1004.25,VALID,0,VALID,83.1243,VALID,0,VALID,25.8823,VALID,280,VALID,0.551953,
2011-09-30, 01:43:05,VALID,1004.21,VALID,0,VALID,83.2463,VALID,0.0815089,VALID,25.8823,VALID,274,VALID,0.653125,
2011-09-30, 01:44:05,VALID,1004.18,VALID,0,VALID,82.7123,VALID,0,VALID,25.9038,VALID,289,VALID,1.17109,
2011-09-30, 01:45:05,VALID,1004.16,VALID,0,VALID,82.9717,VALID,0,VALID,25.9018,VALID,304,VALID,0.774219,
2011-09-30, 01:46:05,VALID,1004.15,VALID,0,VALID,83.6049,VALID,0,VALID,25.8823,VALID,316,VALID,0.414063,
2011-09-30, 01:47:05,VALID,1004.12,VALID,0,VALID,83.7498,VALID,0,VALID,25.8414,VALID,325,VALID,0.248437,
2011-09-30, 01:48:05,VALID,1004.09,VALID,0,VALID,84.1237,VALID,0,VALID,25.8044,VALID,232,VALID,0.5875,
2011-09-30, 01:49:05,VALID,1004.06,VALID,0,VALID,84.2,VALID,0,VALID,25.8064,VALID,248,VALID,0.428906,
2011-09-30, 01:50:05,VALID,1004.03,VALID,0,VALID,84.0855,VALID,0,VALID,25.7265,VALID,287,VALID,0.433203,
2011-09-30, 01:51:05,VALID,1004.01,VALID,0,VALID,83.1243,VALID,0,VALID,25.7655,VALID,237,VALID,1.80352,
2011-09-30, 01:52:05,VALID,1004.05,VALID,0,VALID,82.5597,VALID,0,VALID,25.8434,VALID,267,VALID,1.21445,
2011-09-30, 01:53:05,VALID,1004.07,VALID,0,VALID,82.0333,VALID,0,VALID,25.9817,VALID,246,VALID,1.05313,
2011-09-30, 01:54:05,VALID,1004.04,VALID,0,VALID,82.4072,VALID,0,VALID,26.0401,VALID,268,VALID,0.169922,
2011-09-30, 01:55:05,VALID,1004.03,VALID,0,VALID,82.2775,VALID,0,VALID,26.0576,VALID,236,VALID,0.944922,
2011-09-30, 01:56:05,VALID,1004.04,VALID,0,VALID,81.835,VALID,0,VALID,26.116,VALID,248,VALID,1.3125,
2011-09-30, 01:57:05,VALID,1003.99,VALID,0,VALID,81.034,VALID,0,VALID,26.2739,VALID,228,VALID,1.40352,
2011-09-30, 01:58:05,VALID,1003.96,VALID,0,VALID,80.8356,VALID,0,VALID,26.3108,VALID,227,VALID,0.715234,
2011-09-30, 01:59:05,VALID,1003.92,VALID,0,VALID,81.3467,VALID,0,VALID,26.3498,VALID,16,VALID,0.527734,
2011-09-30, 02:00:05,VALID,1003.92,VALID,0,VALID,80.7593,VALID,0,VALID,26.3498,VALID,217,VALID,1.38203,
2011-09-30, 02:01:05,VALID,1003.92,VALID,0,VALID,80.6068,VALID,0,VALID,26.3693,VALID,174,VALID,0.737109,
2011-09-30, 02:02:05,VALID,1003.88,VALID,0,VALID,81.2628,VALID,0,VALID,26.3283,VALID,111,VALID,0.414063,
2011-09-30, 02:03:05,VALID,1003.88,VALID,0,VALID,80.4313,VALID,0,VALID,26.3108,VALID,237,VALID,1.16016,
2011-09-30, 02:04:05,VALID,1003.86,VALID,0,VALID,80.3855,VALID,0,VALID,26.3303,VALID,194,VALID,1.06953,
2011-09-30, 02:05:05,VALID,1003.8,VALID,0,VALID,80.3016,VALID,0,VALID,26.3693,VALID,176,VALID,1.0543,
2011-09-30, 02:06:05,VALID,1003.76,VALID,0,VALID,80.088,VALID,0,VALID,26.4472,VALID,230,VALID,1.87812,
2011-09-30, 02:07:05,VALID,1003.74,VALID,0,VALID,79.7065,VALID,0,VALID,26.5076,VALID,172,VALID,0.393359,
2011-09-30, 02:08:05,VALID,1003.68,VALID,0,VALID,79.8133,VALID,0,VALID,26.5056,VALID,243,VALID,0.417188,
2011-09-30, 02:09:05,VALID,1003.65,VALID,0,VALID,79.2488,VALID,0,VALID,26.5056,VALID,181,VALID,0.658594,
2011-09-30, 02:10:05,VALID,1003.64,VALID,0,VALID,78.8292,VALID,0,VALID,26.5446,VALID,225,VALID,1.25156,
2011-09-30, 02:11:05,VALID,1003.61,VALID,0,VALID,78.4249,VALID,0,VALID,26.605,VALID,216,VALID,1.43945,
2011-09-30, 02:12:05,VALID,1003.61,VALID,0,VALID,78.5698,VALID,0,VALID,26.683,VALID,214,VALID,0.815234,
2011-09-30, 02:13:05,VALID,1003.58,VALID,0,VALID,78.8445,VALID,0,VALID,26.7024,VALID,140,VALID,0.478516,
2011-09-30, 02:14:05,VALID,1003.59,VALID,0,VALID,77.8527,VALID,0,VALID,26.7414,VALID,159,VALID,1.33398,
2011-09-30, 02:15:05,VALID,1003.57,VALID,0,VALID,77.7154,VALID,0,VALID,26.7589,VALID,186,VALID,0.86875,
2011-09-30, 02:16:05,VALID,1003.56,VALID,0,VALID,77.2577,VALID,0,VALID,26.7783,VALID,268,VALID,0.967188,
2011-09-30, 02:17:05,VALID,1003.58,VALID,0,VALID,76.3575,VALID,0,VALID,26.7589,VALID,236,VALID,0.851953,
2011-09-30, 02:18:05,VALID,1003.59,VALID,0,VALID,74.0612,VALID,0,VALID,26.7978,VALID,239,VALID,1.64844,
2011-09-30, 02:19:05,VALID,1003.57,VALID,0,VALID,73.9849,VALID,0,VALID,26.8973,VALID,219,VALID,1.66758,
2011-09-30, 02:20:05,VALID,1003.59,VALID,0,VALID,74.763,VALID,0,VALID,26.9147,VALID,138,VALID,0.713281,
2011-09-30, 02:21:05,VALID,1003.57,VALID,0,VALID,73.8704,VALID,0,VALID,26.9147,VALID,242,VALID,1.77578,
2011-09-30, 02:22:05,VALID,1003.55,VALID,0,VALID,72.215,VALID,0,VALID,26.9926,VALID,219,VALID,2.83984,
2011-09-30, 02:23:05,VALID,1003.54,VALID,0,VALID,72.9779,VALID,0,VALID,27.1311,VALID,251,VALID,0.98125,
2011-09-30, 02:24:05,VALID,1003.55,VALID,0,VALID,72.7643,VALID,0,VALID,27.1506,VALID,225,VALID,1.45078,
2011-09-30, 02:25:05,VALID,1003.5,VALID,0,VALID,72.5278,VALID,0,VALID,27.1506,VALID,230,VALID,1.9875,
2011-09-30, 02:26:05,VALID,1003.52,VALID,0,VALID,72.1158,VALID,0,VALID,27.129,VALID,229,VALID,1.27617,
2011-09-30, 02:27:05,VALID,1003.45,VALID,0,VALID,72.1692,VALID,0,VALID,27.1895,VALID,257,VALID,1.48438,
2011-09-30, 02:28:05,VALID,1003.48,VALID,0,VALID,72.7948,VALID,0,VALID,27.1875,VALID,299,VALID,0.966406,
2011-09-30, 02:29:05,VALID,1003.44,VALID,0,VALID,70.1628,VALID,0,VALID,27.1895,VALID,260,VALID,1.70234,
2011-09-30, 02:30:05,VALID,1003.45,VALID,0,VALID,70.3307,VALID,0,VALID,27.2285,VALID,228,VALID,2.02461,
2011-09-30, 02:31:05,VALID,1003.43,VALID,0,VALID,70.6816,VALID,0,VALID,27.2654,VALID,269,VALID,1.40781,
2011-09-30, 02:32:05,VALID,1003.44,VALID,0,VALID,70.9867,VALID,0,VALID,27.2459,VALID,236,VALID,1.38086,
2011-09-30, 02:33:05,VALID,1003.45,VALID,0,VALID,71.4597,VALID,0,VALID,27.2675,VALID,252,VALID,1.6207,
2011-09-30, 02:34:05,VALID,1003.44,VALID,0,VALID,71.5131,VALID,0,VALID,27.2654,VALID,261,VALID,0.880859,
2011-09-30, 02:35:05,VALID,1003.43,VALID,0,VALID,72.0243,VALID,0,VALID,27.2459,VALID,231,VALID,1.20977,
2011-09-30, 02:36:05,VALID,1003.41,VALID,0,VALID,72.1311,VALID,0,VALID,27.2285,VALID,247,VALID,1.3043,
2011-09-30, 02:37:05,VALID,1003.35,VALID,0,VALID,70.0789,VALID,0,VALID,27.2849,VALID,192,VALID,1.98594,
2011-09-30, 02:38:05,VALID,1003.34,VALID,0,VALID,71.0935,VALID,0,VALID,27.3454,VALID,300,VALID,1.50156,
2011-09-30, 02:39:05,VALID,1003.35,VALID,0,VALID,71.6047,VALID,0,VALID,27.3238,VALID,270,VALID,1.06016,
2011-09-30, 02:40:05,VALID,1003.34,VALID,0,VALID,70.3764,VALID,0,VALID,27.3454,VALID,224,VALID,2.25898,
2011-09-30, 02:41:05,VALID,1003.38,VALID,0,VALID,70.3001,VALID,0,VALID,27.3628,VALID,213,VALID,2.44414,
2011-09-30, 02:42:05,VALID,1003.4,VALID,0,VALID,70.674,VALID,0,VALID,27.3823,VALID,228,VALID,0.796484,
2011-09-30, 02:43:05,VALID,1003.37,VALID,0,VALID,70.3612,VALID,0,VALID,27.4233,VALID,199,VALID,1.61563,
2011-09-30, 02:44:05,VALID,1003.46,VALID,0,VALID,70.0636,VALID,0,VALID,27.4018,VALID,217,VALID,1.85586,
2011-09-30, 02:45:05,VALID,1003.35,VALID,0,VALID,69.9721,VALID,0,VALID,27.4233,VALID,232,VALID,1.53906,
2011-09-30, 02:46:05,VALID,1003.36,VALID,0,VALID,70.1399,VALID,0,VALID,27.4018,VALID,258,VALID,1.25625,
2011-09-30, 02:47:05,VALID,1003.38,VALID,0,VALID,70.2162,VALID,0,VALID,27.4018,VALID,218,VALID,1.65273,
2011-09-30, 02:48:05,VALID,1003.36,VALID,0,VALID,70.3688,VALID,0.0815089,VALID,27.3802,VALID,355,VALID,0.654688,
2011-09-30, 02:49:05,VALID,1003.39,VALID,0,VALID,70.1933,VALID,0.0815089,VALID,27.3997,VALID,207,VALID,1.75859,
2011-09-30, 02:50:05,VALID,1003.42,VALID,0,VALID,70.7273,VALID,0.0815089,VALID,27.3823,VALID,212,VALID,1.68477,
2011-09-30, 02:51:05,VALID,1003.43,VALID,0,VALID,71.7649,VALID,0,VALID,27.3413,VALID,264,VALID,0.625781,
2011-09-30, 02:52:05,VALID,1003.45,VALID,0,VALID,71.6199,VALID,0.0815089,VALID,27.3413,VALID,208,VALID,0.945313,
2011-09-30, 02:53:05,VALID,1003.49,VALID,0,VALID,72.0243,VALID,0.0815089,VALID,27.3218,VALID,230,VALID,1.06797,
2011-09-30, 02:54:05,VALID,1003.45,VALID,0,VALID,72.2455,VALID,0,VALID,27.3023,VALID,206,VALID,1.35859,
2011-09-30, 02:55:05,VALID,1003.43,VALID,0,VALID,70.3001,VALID,0.0815089,VALID,27.2828,VALID,234,VALID,1.84844,
2011-09-30, 02:56:05,VALID,1003.45,VALID,0,VALID,70.4451,VALID,0.0815089,VALID,27.2828,VALID,187,VALID,0.695313,
2011-09-30, 02:57:05,VALID,1003.46,VALID,0,VALID,70.1399,VALID,0.0815089,VALID,27.3238,VALID,221,VALID,2.23633,
2011-09-30, 02:58:05,VALID,1003.49,VALID,0,VALID,71.1546,VALID,0,VALID,27.3044,VALID,275,VALID,1.27891,
2011-09-30, 02:59:05,VALID,1003.46,VALID,0,VALID,71.2995,VALID,0,VALID,27.3023,VALID,236,VALID,1.59102,
2011-09-30, 03:00:05,VALID,1003.55,VALID,0,VALID,71.1851,VALID,0,VALID,27.3433,VALID,222,VALID,1.27617,
2011-09-30, 03:01:05,VALID,1003.44,VALID,0,VALID,71.536,VALID,0,VALID,27.3628,VALID,260,VALID,1.55898,
2011-09-30, 03:02:05,VALID,1003.52,VALID,0,VALID,72.5583,VALID,0,VALID,27.3433,VALID,235,VALID,1.15898,
2011-09-30, 03:03:05,VALID,1003.52,VALID,0,VALID,71.2537,VALID,0.0815089,VALID,27.3044,VALID,215,VALID,1.88047,
2011-09-30, 03:04:05,VALID,1003.53,VALID,0,VALID,71.4597,VALID,0,VALID,27.2849,VALID,226,VALID,1.39141,
2011-09-30, 03:05:05,VALID,1003.52,VALID,0,VALID,70.5671,VALID,0.0815089,VALID,27.2438,VALID,210,VALID,3.18281,
2011-09-30, 03:06:05,VALID,1003.53,VALID,0,VALID,69.7966,VALID,0,VALID,27.3023,VALID,210,VALID,1.93828,
2011-09-30, 03:07:05,VALID,1003.58,VALID,0,VALID,71.1546,VALID,0.0815089,VALID,27.3238,VALID,349,VALID,0.910937,
2011-09-30, 03:08:05,VALID,1003.52,VALID,0,VALID,69.6212,VALID,0.0815089,VALID,27.2633,VALID,260,VALID,1.63477,
2011-09-30, 03:09:05,VALID,1003.59,VALID,0,VALID,69.8805,VALID,0.0815089,VALID,27.3259,VALID,250,VALID,1.78203,
2011-09-30, 03:10:05,VALID,1003.55,VALID,0,VALID,70.2467,VALID,0.0815089,VALID,27.3238,VALID,261,VALID,1.38477,
2011-09-30, 03:11:05,VALID,1003.59,VALID,0,VALID,70.5443,VALID,0,VALID,27.2828,VALID,239,VALID,0.751172,
2011-09-30, 03:12:05,VALID,1003.58,VALID,0,VALID,71.1469,VALID,0,VALID,27.2654,VALID,232,VALID,0.873047,
2011-09-30, 03:13:05,VALID,1003.63,VALID,0,VALID,71.0935,VALID,0.0815089,VALID,27.2244,VALID,217,VALID,1.46602,
2011-09-30, 03:14:05,VALID,1003.59,VALID,0,VALID,71.1088,VALID,0.0815089,VALID,27.2459,VALID,234,VALID,2.17344,
2011-09-30, 03:15:05,VALID,1003.62,VALID,0,VALID,71.6123,VALID,0.0815089,VALID,27.2633,VALID,239,VALID,1.03125,
2011-09-30, 03:16:05,VALID,1003.65,VALID,0,VALID,71.742,VALID,0.0815089,VALID,27.2849,VALID,209,VALID,1.71875,
2011-09-30, 03:17:05,VALID,1003.63,VALID,0,VALID,72.1005,VALID,0.0815089,VALID,27.2849,VALID,197,VALID,0.850781,
2011-09-30, 03:18:05,VALID,1003.67,VALID,0,VALID,71.2919,VALID,0,VALID,27.2654,VALID,237,VALID,2.06133,
2011-09-30, 03:19:05,VALID,1003.63,VALID,0,VALID,71.8259,VALID,0,VALID,27.2849,VALID,307,VALID,0.615625,
2011-09-30, 03:20:05,VALID,1003.65,VALID,0,VALID,71.8564,VALID,0,VALID,27.2459,VALID,228,VALID,1.48477,
2011-09-30, 03:21:05,VALID,1003.66,VALID,0,VALID,71.5742,VALID,0,VALID,27.2675,VALID,216,VALID,1.54375,
2011-09-30, 03:22:05,VALID,1003.64,VALID,0,VALID,72.1692,VALID,0,VALID,27.248,VALID,224,VALID,1.64375,
2011-09-30, 03:23:05,VALID,1003.63,VALID,0,VALID,72.9245,VALID,0,VALID,27.2264,VALID,209,VALID,0.372656,
2011-09-30, 03:24:05,VALID,1003.6,VALID,0,VALID,72.9779,VALID,0,VALID,27.1875,VALID,163,VALID,1.30938,
2011-09-30, 03:25:05,VALID,1003.58,VALID,0,VALID,72.1997,VALID,0,VALID,27.1875,VALID,232,VALID,1.19766,
2011-09-30, 03:26:05,VALID,1003.54,VALID,0,VALID,71.1622,VALID,0,VALID,27.2675,VALID,198,VALID,2.36523,
2011-09-30, 03:27:05,VALID,1003.49,VALID,0,VALID,71.6657,VALID,0,VALID,27.2869,VALID,228,VALID,1.85703,
2011-09-30, 03:28:05,VALID,1003.45,VALID,0,VALID,72.2226,VALID,0,VALID,27.2695,VALID,232,VALID,0.948828,
2011-09-30, 03:29:05,VALID,1003.44,VALID,0,VALID,72.2684,VALID,0,VALID,27.2285,VALID,177,VALID,3.53555,
2011-09-30, 03:30:04,VALID,1003.37,VALID,0,VALID,71.9937,VALID,0,VALID,27.2285,VALID,262,VALID,1.50898,
2011-09-30, 03:31:04,VALID,1003.42,VALID,0,VALID,71.3224,VALID,0,VALID,27.2285,VALID,198,VALID,2.22422,
2011-09-30, 03:32:04,VALID,1003.38,VALID,0,VALID,71.6733,VALID,0,VALID,27.248,VALID,232,VALID,2.25703,
2011-09-30, 03:33:04,VALID,1003.37,VALID,0,VALID,71.8412,VALID,0,VALID,27.2675,VALID,142,VALID,0.889844,
2011-09-30, 03:34:04,VALID,1003.35,VALID,0,VALID,72.5964,VALID,0,VALID,27.2069,VALID,192,VALID,0.801562,
2011-09-30, 03:35:04,VALID,1003.34,VALID,0,VALID,73.4585,VALID,0,VALID,27.168,VALID,206,VALID,1.13164,
2011-09-30, 03:36:04,VALID,1003.32,VALID,0,VALID,73.7942,VALID,0,VALID,27.129,VALID,198,VALID,0.959375,
2011-09-30, 03:37:04,VALID,1003.27,VALID,0,VALID,74.1527,VALID,0,VALID,27.1095,VALID,212,VALID,3.04102,
2011-09-30, 03:38:04,VALID,1003.29,VALID,0,VALID,74.4884,VALID,0.0815089,VALID,27.129,VALID,225,VALID,2.45195,
2011-09-30, 03:39:04,VALID,1003.28,VALID,0,VALID,74.7783,VALID,0,VALID,27.1485,VALID,163,VALID,0.644531,
2011-09-30, 03:40:04,VALID,1003.29,VALID,0,VALID,74.9385,VALID,0,VALID,27.129,VALID,190,VALID,0.827344,
2011-09-30, 03:41:04,VALID,1003.28,VALID,0,VALID,75.8616,VALID,0,VALID,27.1095,VALID,307,VALID,0.554297,
2011-09-30, 03:42:04,VALID,1003.31,VALID,0,VALID,74.763,VALID,0,VALID,27.09,VALID,205,VALID,2.77461,
2011-09-30, 03:43:04,VALID,1003.28,VALID,0,VALID,74.7173,VALID,0,VALID,27.09,VALID,243,VALID,1.01055,